Location: Sungai Bunut
(2.6333°N, 113.7333°E)
Time: 18:42:20
(UTC+00:00)

Palapa 6 Rocket - Pass Details

Date: 16 October 2021
Orbit: 484 x 1215 km, 22.7° (Epoch: 07 December)

Event Time Altitude Azimuth Distance (km) Brightness Sun altitude
Exits shadow 20:26:21 42° 236° (SW) 1,668 4.8 -26.1°
Maximum altitude 20:29:29 81° 156° (SSE) 1,222 4.4 -25.3°
Drops below altitude 10° 20:37:15 10° 69° (ENE) 3,023 7.4 -23.4°
Sets 20:39:56 0° 68° (ENE) 3,910 8.1 -22.8°
